Location: Grambois
(43.7619°N, 5.5873°E)
Time: 09:27:02
(UTC+00:00)

BREEZE-M DEB (TANK) - Pass Details

Date: 02 October 2020
Orbit: 333 x 12040 km, 49.7° (Epoch: 22 October)

Event Time Altitude Azimuth Distance (km) Brightness Sun altitude
Rises 02:24:16 0° 179° (S) 13,864 8.9 -34.1°
Reaches altitude 10° 02:36:53 10° 174° (S) 14,187 9.0 -32.1°
Maximum altitude 04:03:31 53° 117° (ESE) 11,018 8.9 -17.6°
Drops below altitude 10° 04:43:56 10° 57° (ENE) 8,216 9.1 -10.4°
Sets 04:48:15 0° 53° (NE) 8,336 9.2 -9.6°
